Погода в Чапаевском

Россия / Карачаево-Черкесская Республика     44°16′58″N   42°03′58″E
темп.,
°C
ветер,
м/с
пор.,
м/с
влажн.,
%
обл.,
%
осадки,
мм/ч
давл.,
гПа
погр.,
м
14 мая, пт
пт1400:00+13ю22874 0.0 101320
03:00+12ю335715 0.0 101326
06:00+13ю33560 0.0 101332
09:00+23вюв22460 0.0 1012282
12:00+26в45465 0.0 1011571
15:00+26в68530 0.0 1010698
18:00+23вюв6117062 0.0 1010328
21:00+18ююв33835 0.0 101127
15 мая, сб
сб1500:00+15юз335853 0.0 101231
03:00+15юз335393 0.0 101329
06:00+15юз22630 0.0 101432
09:00+22зсз22600 0.0 1014395
12:00+25с33585 0.0 1013839
15:00+25ссв45615 0.0 10121158
18:00+22св3579100 0.9 101288
21:00+17ююз338997 2.9 101340
16 мая, вс
вс1600:00+15ю2284100 0.0 101224
03:00+15ююз2287100 0.1 101121
06:00+15ююз228297 0.0 101136
09:00+22в236861 0.0 1009580
12:00+25в456026 0.0 10081276
15:00+25в67615 0.0 10061415
18:00+22всв597581 0.0 1006469
21:00+17вюв238869 0.0 100538
17 мая, пн
пн1700:00+16ююв22878 0.0 100523
03:00+15ююв227288 0.0 100416
06:00+16ююз22716 0.0 100527
09:00+23зсз12525 0.0 1005373
12:00+25ссз3362100 0.0 1006993
15:00+16юз5790100 11.2 1008159
18:00+18зсз468433 2.6 1009265
21:00+14юз2396100 2.6 101255
18 мая, вт
вт1800:00+14ю2289100 0.0 101121
03:00+13зюз229193 0.1 101119
06:00+13з3692100 0.4 1014311
09:00+15зсз3486100 0.6 1015463
12:00+20ссз1168100 0.0 1014820
15:00+20ссз3370100 0.6 1014969
18:00+17с348699 1.9 1015423
21:00+13з119310 2.0 101611